Regional Weather Roundup
Issued by NWS Charleston, WV

Home | Current Version | Previous Version | Graphics & Text | Print | Product List | Glossary On
Versions: 1 2 3 4 5 6 7 8 9 10 11 12 13 14 15 16 17 18 19 20 21 22 23 24 25 26 27 28 29 30 31 32 33 34 35 36 37 38 39 40 41 42 43 44 45 46 47 48 49 50
000
ASUS41 KRLX 182310
RWRRLX
West Virginia Regional Weather Roundup
National Weather Service Charleston WV
700 PM EDT SAT APR 18 2015

Note: "fair" indicates few or no clouds below 12,000 feet with no
significant weather and/or obstructions to visibility.

WVZ003-190000-
Northern Panhandle of West Virginia

CITY           SKY/WX    TMP DP  RH WIND       PRES   REMARKS
WHEELING       CLOUDY    73  42  32 N9        30.01S
$$

WVZ009-190000-
Northwest West Virginia

CITY           SKY/WX    TMP DP  RH WIND       PRES   REMARKS
PARKERSBURG    PTSUNNY   76  42  29 N6        30.00F
$$

WVZ006-190000-
Western West Virginia

CITY           SKY/WX    TMP DP  RH WIND       PRES   REMARKS
HUNTINGTON     SUNNY     75  45  34 NE9       29.95S
$$

WVZ015-190000-
West Central West Virginia

CITY           SKY/WX    TMP DP  RH WIND       PRES   REMARKS
CHARLESTON     MOSUNNY   79  44  28 VRB5      29.95S
$$

WVZ022-031-190000-
North Central West Virginia

CITY           SKY/WX    TMP DP  RH WIND       PRES   REMARKS
CLARKSBURG     PTSUNNY   72  42  34 NE6       30.00R
MORGANTOWN     CLOUDY    73  39  29 N5        30.02S
$$

WVZ025-035-042-045-190000-
Southern West Virginia

CITY           SKY/WX    TMP DP  RH WIND       PRES   REMARKS
BECKLEY        PTSUNNY   74  44  34 N8        30.00R
LOGAN            N/A     77  48  36 VRB7      29.93S
BLUEFIELD      MOSUNNY   75  40  28 SE5       30.00S
LEWISBURG      MOSUNNY   77  35  22 CALM      30.00R
$$

WVZ047-190000-
Northern Mountains of West Virginia

CITY           SKY/WX    TMP DP  RH WIND       PRES   REMARKS
ELKINS         PTSUNNY   72  41  32 NW8       30.02S
$$

WVZ052-190000-
Eastern Panhandle of West Virginia

CITY           SKY/WX    TMP DP  RH WIND       PRES   REMARKS
MARTINSBURG    CLOUDY    74  46  36 S6        29.96F
PETERSBURG     MOCLDY    76  38  25 E6        29.99R
$$


USA.gov is the U.S. government's official web portal to all federal, state and local government web resources and services.